Location: Hanover
(52.3667°N, 9.7167°E)
Time: 03:59:24
(UTC+02:00)

ARIANE 6 FM1 Upper Stage - Pass Details

Date: 20 September 2024
Orbit: 564 x 594 km, 62.0° (Epoch: 06 October)

Event Time Altitude Azimuth Distance (km) Brightness Sun altitude
Exits shadow 02:56:36 23° 56° (NE) 1,290 5.0 -32.5°
Drops below altitude 10° 02:58:49 10° 80° (E) 1,936 5.8 -32.4°
Sets 03:01:19 0° 92° (E) 2,838 6.6 -32.2°
